星链-3197 (STARLINK-3197 )

导读

STARLINK-3197是美国SpaceX公司星链(Starlink)星座的一颗低轨通信卫星,于2021年12月2日成功发射,属于星链早期组网任务的组成部分。该卫星运行在近地轨道,配备相控阵通信天线与氪离子推进系统,承担全球宽带互联网接入服务,为偏远地区提供网络覆盖,助力实现星链全球互联的项目目标,目前仍在轨承担通信组网任务,是SpaceX大规模星座部署的重要节点。

Basic Information
目录编号:
49757
目录名称:
STARLINK-3197
国际标识:
2021-115AK
轨道中心:
EARTH
卫星名称:
星链-3197
卫星全名:
星链-3197 (STARLINK-3197 )
卫星状态:
在轨 (已飞行1658 天)
发射日期:
2021-12-02 UTC
国别 :
美国 (US)
星等 :
--
Orbit Information
数据来源 国际轨道数据 AOE轨道数据
星历时间 2026-06-17T12:09:31+0800
5小时前
查看轨道信息
2026-06-13T01:00:00+0800
4天前
查看轨道信息
半长轴 6917.911km 6917.831km
偏心率 0.0001282 0.0001458
轨道倾角 53.160° 53.159°
近地点辐角 89.674° 87.381°
升交点赤经 52.438° 72.510°
平近点角 270.440° 126.818°
近地点 538.887km 538.685km
远地点 540.661km 540.703km
周期 95.438分钟 95.437分钟
每日圈数 15.088303 15.088564
Detailed Information
固有亮度:
5
最大亮度:
2.5
卫星平台:
Starlink v1.5
覆盖范围:
全球
运营商:
太空探索技术公司
运营商所在国:
美国
制造商(研发单位):
太空探索技术公司
制造商所在国:
美国
使用方式:
暂无
Satellite Introduction
星链(Starlink)计划是由太空探索技术公司(SpaceX)提出的一个巨型低轨卫星互联网星座项目,计划在2019年至2024年间在太空搭建由约1.2万颗卫星组成的“星链”网络,其中1584颗将部署在地球上空550千米处的近地轨道,并从2020年开始工作。该卫星仍在工作。
2D Orbit Map
3D Orbit Map
Orbit Altitude Analysis Chart
Orbit Inclination Analysis Chart
Orbit Comprehensive Analysis Chart
View Comprehensive Chart